[[{"header":{"parameterUnit":"m.s-1","parameterCategory":1,"la1":30.2991,"la2":30.254,"lo1":-89.0895,"lo2":-89.0444,"dy":0.0017,"dx":0.0017,"nx":28,"ny":28,"refTime":"2025-03-24T09:00:00:Z","depth":0,"parameterNumber":2,"parameterNumberName":"U-component_of_WINDS"},"data":[0,0,0,0,0,0,0,0,0,0,0,0,0,0,0,0,0,0,0,0,0,0,0,0,0,0,0,0,0,0,0,0,0,0,0,0,0,0,0,0,0,0,0,0,0,0,0,0,0,0,0,0,0,0,0,0,0,0,-0.3467,-0.3466,0,-0.339,-0.339,-0.3389,-0.334,-0.3339,-0.3339,-0.3339,-0.3257,-0.3255,-0.3253,0,0,0,0,0,0,0,0,0,0,0,0,0,-0.3566,-0.3565,-0.3467,-0.3466,-0.3465,-0.3391,-0.3389,-0.3388,-0.334,-0.3339,-0.3339,-0.3339,-0.3257,-0.3255,-0.3253,0,0,0,0,0,0,0,0,0,0,0,0,0,-0.351,-0.3564,-0.3467,-0.3432,-0.3428,-0.3391,-0.3389,-0.3388,-0.334,-0.3339,-0.3339,-0.3338,-0.3258,-0.3255,-0.3253,-0.3244,0,0,-0.3244,-0.3243,0,0,0,0,0,0,0,0,-0.3513,-0.3506,-0.3438,-0.3434,-0.343,-0.3374,-0.3395,-0.334,-0.334,-0.3373,-0.3339,-0.3338,-0.3296,-0.329,-0.3276,-0.324,-0.3236,-0.3244,-0.3242,-0.3241,-0.324,0,0,0,0,0,0,0,-0.3517,-0.3509,-0.3436,-0.3437,-0.3432,-0.3418,-0.341,-0.3384,-0.3338,-0.337,-0.3366,-0.3358,-0.3294,-0.3279,-0.3274,-0.3235,-0.3244,-0.3241,-0.3239,-0.3238,-0.3186,-0.3186,0,0,0,0,0,0,-0.3527,-0.3513,-0.3439,-0.3434,-0.3471,-0.3417,-0.3407,-0.3392,-0.3338,-0.3329,-0.3359,-0.3356,-0.3284,-0.3278,-0.3271,-0.3256,-0.3241,-0.3238,-0.3236,-0.3186,-0.3186,-0.3187,0,0,0,0,0,0,-0.3529,-0.3521,-0.3442,-0.3472,-0.3461,-0.3416,-0.3399,-0.3391,-0.3377,-0.3329,-0.332,-0.3353,-0.3284,-0.3275,-0.3251,-0.3253,-0.3237,-0.3234,-0.3185,-0.3186,-0.3186,-0.3227,0,0,0,0,0,0,-0.3532,-0.3522,-0.3519,-0.3473,-0.346,-0.3424,-0.3399,-0.339,-0.3372,-0.3368,-0.3322,-0.3313,-0.3283,-0.3255,-0.3248,-0.3249,-0.3232,-0.3185,-0.3186,-0.3186,-0.3225,-0.3229,-0.3232,0,0,0,0,0,-0.3536,-0.3533,-0.3519,-0.351,-0.3455,-0.3424,-0.3417,-0.3383,-0.3373,-0.3369,-0.3338,-0.3315,-0.3254,-0.3253,-0.3245,-0.3244,-0.3185,-0.3185,-0.3186,-0.3224,-0.3228,-0.3232,0,0,0,0,0,0,-0.3579,-0.3526,-0.351,-0.3492,-0.3463,-0.3416,-0.341,-0.3389,-0.3361,-0.3359,-0.3317,-0.3306,-0.3286,-0.3263,-0.3263,-0.3232,-0.3217,-0.3216,-0.3248,-0.3252,-0.3255,-0.3261,-0.3229,0,0,0,0,0,-0.3587,-0.3567,-0.3522,-0.351,-0.3496,-0.3456,-0.3441,-0.3418,-0.3386,-0.3373,-0.334,-0.3309,-0.3283,-0.3266,-0.3239,-0.3222,-0.321,-0.3218,-0.3221,-0.3224,-0.3223,-0.3211,-0.3214,-0.3189,-0.3189,-0.3189,0,0,-0.3602,-0.357,-0.356,-0.3518,-0.3493,-0.3472,-0.3446,-0.3425,-0.3409,-0.3369,-0.3344,-0.332,-0.3282,-0.3261,-0.325,-0.3241,-0.3228,-0.3225,-0.3228,-0.3225,-0.3212,-0.3215,-0.3217,-0.319,-0.3189,-0.3189,0,0,-0.3619,-0.3594,-0.3581,-0.3556,-0.3519,-0.3492,-0.349,-0.3446,-0.3428,-0.3403,-0.3372,-0.3352,-0.3308,-0.3282,-0.3263,-0.3271,-0.3247,-0.3263,-0.328,-0.3269,-0.3271,-0.3272,-0.3274,-0.3275,-0.3263,-0.3263,-0.3263,0,-0.3642,-0.3611,-0.3577,-0.3558,-0.354,-0.3504,-0.349,-0.3467,-0.3423,-0.3411,-0.3401,-0.3345,-0.3317,-0.3289,-0.3291,-0.3278,-0.3272,-0.3268,-0.3274,-0.3275,-0.3276,-0.3277,-0.3278,-0.3265,-0.3265,-0.3264,-0.3264,0,-0.364,-0.3619,-0.3613,-0.3573,-0.3554,-0.3537,-0.35,-0.3484,-0.3463,-0.3437,-0.3411,-0.3376,-0.3342,-0.3334,-0.3312,-0.3303,-0.3298,-0.3282,-0.3265,-0.3281,-0.3281,-0.3281,-0.3268,-0.3267,-0.3266,-0.3266,0,0,-0.3681,-0.3622,-0.3621,-0.3602,-0.3558,-0.354,-0.3522,-0.349,-0.3477,-0.3448,-0.343,-0.3394,-0.3379,-0.3358,-0.3333,-0.3323,-0.3331,-0.3308,-0.3306,-0.3313,-0.3317,-0.3329,-0.333,-0.3316,-0.3316,-0.3315,-0.332,0,-0.3691,-0.3658,-0.3626,-0.3604,-0.3583,-0.3549,-0.3533,-0.3504,-0.3479,-0.3457,-0.3429,-0.3404,-0.3387,-0.3373,-0.3363,-0.3332,-0.3331,-0.3331,-0.3298,-0.3297,-0.3307,-0.333,-0.3342,-0.3348,-0.332,-0.332,-0.332,0,-0.3697,-0.367,-0.3646,-0.3605,-0.3595,-0.3581,-0.3549,-0.3529,-0.3495,-0.3477,-0.3454,-0.3428,-0.3406,-0.3392,-0.3361,-0.3362,-0.3346,-0.3329,-0.3328,-0.3323,-0.3309,-0.3324,-0.3349,-0.335,-0.332,-0.332,-0.332,0,-0.3728,-0.3686,-0.3666,-0.3651,-0.3602,-0.3593,-0.3572,-0.3538,-0.352,-0.3492,-0.3479,-0.3448,-0.3431,-0.3407,-0.3372,-0.3366,-0.3344,-0.3328,-0.3328,-0.3328,-0.3323,-0.3324,-0.3345,-0.3316,-0.3316,-0.3316,-0.3316,0,-0.3742,-0.3728,-0.368,-0.3667,-0.365,-0.3615,-0.3599,-0.3574,-0.3544,-0.3526,-0.3494,-0.3477,-0.3433,-0.3411,-0.3384,-0.3361,-0.3353,-0.3338,-0.333,-0.334,-0.3342,-0.3328,-0.3326,-0.3316,-0.3316,-0.3316,-0.3316,0,-0.3773,-0.374,-0.3716,-0.3672,-0.3661,-0.3651,-0.3612,-0.3598,-0.3572,-0.3549,-0.3541,-0.3499,-0.3471,-0.3435,-0.3395,-0.3377,-0.3357,-0.3346,-0.3369,-0.3364,-0.3366,-0.3366,-0.3378,-0.3377,-0.3349,-0.335,-0.335,0,-0.3783,-0.3772,-0.3727,-0.3713,-0.3694,-0.3671,-0.3653,-0.3617,-0.36,-0.356,-0.3551,-0.352,-0.3494,-0.345,-0.3415,-0.3384,-0.3372,-0.3379,-0.3367,-0.3377,-0.3371,-0.3372,-0.337,-0.3381,-0.3382,-0.3382,-0.3383,0,-0.3804,-0.3789,-0.3765,-0.3736,-0.3715,-0.369,-0.3663,-0.3653,-0.3611,-0.3593,-0.3564,-0.3544,-0.3504,-0.3473,-0.3438,-0.3415,-0.3391,-0.3387,-0.3385,-0.3394,-0.3407,-0.3399,-0.3375,-0.3386,-0.3386,-0.3386,-0.3385,-0.3385,-0.3825,-0.3813,-0.378,-0.3754,-0.373,-0.3706,-0.3691,-0.3663,-0.3639,-0.3604,-0.3584,-0.3556,-0.3521,-0.3472,-0.345,-0.3426,-0.3417,-0.3415,-0.3414,-0.3414,-0.3416,-0.3412,-0.342,-0.342,-0.3419,-0.3419,-0.3419,0,-0.3843,-0.3821,-0.3797,-0.3761,-0.3741,-0.3722,-0.3692,-0.3675,-0.3651,-0.3622,-0.3597,-0.3564,-0.3534,-0.3498,-0.3465,-0.3454,-0.3442,-0.3446,-0.3446,-0.3441,-0.3426,-0.3431,-0.3456,-0.3456,-0.3456,-0.3456,-0.3456,-0.3456,-0.3851,-0.383,-0.381,-0.3777,-0.3753,-0.3727,-0.3711,-0.3688,-0.3664,-0.3629,-0.3605,-0.3581,-0.3549,-0.3514,-0.3486,-0.3475,-0.3464,-0.3472,-0.3458,-0.3445,-0.3442,-0.3439,-0.3443,-0.347,-0.347,-0.3475,-0.3475,-0.3475]},{"header":{"parameterUnit":"m.s-1","parameterCategory":1,"la1":30.2991,"la2":30.254,"lo1":-89.0895,"lo2":-89.0444,"dy":0.0017,"dx":0.0017,"nx":28,"ny":28,"refTime":"2025-03-24T09:00:00:Z","depth":0,"parameterNumber":3,"parameterNumberName":"V-component_of_WINDS"},"data":[0,0,0,0,0,0,0,0,0,0,0,0,0,0,0,0,0,0,0,0,0,0,0,0,0,0,0,0,0,0,0,0,0,0,0,0,0,0,0,0,0,0,0,0,0,0,0,0,0,0,0,0,0,0,0,0,0,0,1.345,1.345,0,1.3462,1.3462,1.3462,1.3447,1.3446,1.3445,1.3445,1.3458,1.3458,1.3459,0,0,0,0,0,0,0,0,0,0,0,0,0,1.3412,1.3413,1.345,1.345,1.345,1.3462,1.3462,1.3462,1.3447,1.3446,1.3445,1.3445,1.3457,1.3458,1.3459,0,0,0,0,0,0,0,0,0,0,0,0,0,1.3427,1.3413,1.345,1.3443,1.3443,1.3462,1.3462,1.3462,1.3447,1.3446,1.3445,1.3444,1.3457,1.3458,1.346,1.3485,0,0,1.3464,1.3464,0,0,0,0,0,0,0,0,1.3426,1.3428,1.3444,1.3444,1.3443,1.3452,1.3454,1.347,1.3447,1.3445,1.3445,1.3444,1.3456,1.3458,1.3462,1.3486,1.3486,1.3464,1.3464,1.3465,1.3465,0,0,0,0,0,0,0,1.3425,1.3428,1.3455,1.3444,1.3444,1.344,1.3441,1.3457,1.3456,1.3445,1.3444,1.3446,1.3456,1.3461,1.3462,1.3486,1.3464,1.3465,1.3466,1.3466,1.3532,1.3533,0,0,0,0,0,0,1.3425,1.3427,1.3454,1.3455,1.3432,1.3441,1.3443,1.345,1.3455,1.3455,1.3447,1.3445,1.3459,1.3461,1.3463,1.3493,1.3465,1.3466,1.3467,1.3531,1.3532,1.3533,0,0,0,0,0,0,1.3424,1.3427,1.3454,1.3441,1.3444,1.3443,1.3451,1.3451,1.3455,1.3456,1.3456,1.3452,1.3458,1.3461,1.348,1.3493,1.3467,1.3468,1.353,1.3531,1.3533,1.3554,0,0,0,0,0,0,1.3423,1.3427,1.3437,1.3441,1.3444,1.3471,1.3452,1.3452,1.3458,1.3456,1.3461,1.3461,1.3458,1.3478,1.3481,1.3495,1.3469,1.3529,1.353,1.3532,1.3552,1.3556,1.3559,0,0,0,0,0,1.3422,1.3442,1.3437,1.3441,1.3457,1.3471,1.3473,1.3469,1.3459,1.3469,1.3469,1.3461,1.3491,1.348,1.3483,1.3498,1.3528,1.353,1.3532,1.3551,1.3555,1.3559,0,0,0,0,0,0,1.344,1.3443,1.3437,1.346,1.3466,1.3469,1.3481,1.3474,1.3483,1.3481,1.3475,1.3477,1.3497,1.3499,1.3486,1.3523,1.3508,1.3511,1.3521,1.3525,1.3529,1.3528,1.347,0,0,0,0,0,1.3446,1.3458,1.346,1.348,1.3483,1.3482,1.3488,1.3484,1.349,1.3492,1.3494,1.35,1.3511,1.3518,1.3528,1.3552,1.3553,1.3564,1.3567,1.357,1.3573,1.3586,1.3591,1.354,1.354,1.354,0,0,1.346,1.3463,1.3471,1.3484,1.3488,1.35,1.3484,1.3498,1.3507,1.3494,1.3512,1.3514,1.352,1.3542,1.3552,1.3544,1.3587,1.3573,1.3575,1.3577,1.3589,1.3594,1.3598,1.3542,1.3541,1.3541,0,0,1.3492,1.3496,1.3513,1.3517,1.3523,1.3522,1.3526,1.353,1.3531,1.3549,1.354,1.3551,1.3569,1.3574,1.3579,1.3612,1.3605,1.3616,1.3635,1.3648,1.3652,1.3655,1.3668,1.3672,1.3618,1.3618,1.3618,0,1.3509,1.3527,1.3522,1.3537,1.3543,1.3532,1.3549,1.3553,1.3562,1.3567,1.3558,1.3582,1.3585,1.3608,1.3616,1.362,1.3625,1.3615,1.3652,1.3655,1.3658,1.367,1.3675,1.362,1.362,1.3619,1.3619,0,1.3547,1.356,1.3573,1.3582,1.359,1.3605,1.3603,1.3611,1.3606,1.3606,1.3625,1.3628,1.3639,1.3644,1.364,1.3666,1.3662,1.3653,1.3638,1.3665,1.3676,1.368,1.3622,1.3621,1.3621,1.362,0,0,1.3591,1.3597,1.3602,1.3606,1.3612,1.3622,1.3638,1.3648,1.3655,1.3662,1.3674,1.369,1.3682,1.3688,1.3684,1.3695,1.3722,1.3685,1.3685,1.3692,1.3752,1.3759,1.3764,1.3717,1.3718,1.3718,1.3751,0,1.3623,1.365,1.3646,1.3672,1.3684,1.3673,1.3687,1.3692,1.3692,1.3702,1.3702,1.3714,1.3702,1.3705,1.3716,1.3716,1.3734,1.3714,1.3729,1.373,1.3728,1.377,1.3778,1.3809,1.3756,1.3756,1.3757,0,1.3664,1.3673,1.37,1.3704,1.3709,1.3721,1.373,1.374,1.3746,1.3745,1.3751,1.3745,1.3761,1.3745,1.3766,1.3753,1.3758,1.376,1.3761,1.3763,1.3745,1.3773,1.3819,1.3824,1.3763,1.3763,1.3762,0,1.3694,1.3712,1.3731,1.3734,1.374,1.3748,1.3751,1.3756,1.3762,1.377,1.3775,1.3784,1.379,1.3797,1.3794,1.3783,1.3816,1.38,1.3816,1.3816,1.3824,1.3824,1.3872,1.3827,1.3827,1.3827,1.3827,0,1.3731,1.3748,1.3744,1.3756,1.3774,1.3769,1.3788,1.3789,1.3794,1.3805,1.3797,1.3808,1.3803,1.3814,1.3811,1.3829,1.3832,1.3832,1.3831,1.3833,1.3833,1.3837,1.3835,1.3828,1.3828,1.3828,1.3827,0,1.3768,1.3766,1.3785,1.3789,1.379,1.3804,1.3807,1.3817,1.3817,1.3832,1.3835,1.3834,1.3846,1.3843,1.3857,1.3855,1.3878,1.3874,1.3876,1.3876,1.3892,1.3891,1.3945,1.3952,1.3902,1.3902,1.3903,0,1.3792,1.3804,1.3809,1.3816,1.382,1.3831,1.3838,1.3833,1.3841,1.3848,1.3858,1.3869,1.3878,1.3898,1.3899,1.3909,1.3906,1.3924,1.3907,1.3909,1.3907,1.3906,1.3908,1.3927,1.3928,1.3928,1.3929,0,1.3834,1.3833,1.3843,1.3852,1.3861,1.3868,1.3874,1.3881,1.3877,1.3885,1.3898,1.3905,1.3918,1.393,1.3939,1.3942,1.3935,1.3934,1.3938,1.3941,1.3942,1.3942,1.3886,1.3933,1.3932,1.3932,1.3932,1.3932,1.3866,1.3877,1.3882,1.3893,1.3898,1.3904,1.3914,1.3915,1.3925,1.3936,1.3933,1.3947,1.3952,1.3964,1.3968,1.3979,1.3972,1.3978,1.398,1.3982,1.3984,1.3939,1.3981,1.398,1.398,1.398,1.398,0,1.3908,1.3911,1.3922,1.3931,1.394,1.3932,1.3939,1.3947,1.396,1.3965,1.3974,1.3989,1.4,1.4001,1.4012,1.402,1.4018,1.4023,1.4023,1.4024,1.3989,1.3985,1.4026,1.4026,1.4026,1.4026,1.4026,1.4026,1.3932,1.395,1.3949,1.397,1.3972,1.3986,1.3991,1.3997,1.4001,1.4018,1.4027,1.4028,1.4031,1.4042,1.4052,1.4052,1.4057,1.4064,1.4063,1.4031,1.4026,1.4022,1.4018,1.4065,1.4065,1.4097,1.4097,1.4097]}]]